This demonstration page uses our WeatherBlox Daily Observations layout. Learn more.

Left ArrowRight Arrow

39.51506, -84.39828

Hourly Observations for July 23, 2021

Temp ( °F °C ) Dew Point ( °F °C ) Humidity (%) Winds ( mph kmh ) Pressure ( in mb ) Visibility ( mi km ) Precip ( " mm )
12:15 am 00:15 Clear 64 18 N/A N/A N N/A 30.20 1023 10 16 N/A
12:35 am 00:35 Clear 64 18 N/A N/A NE 3 6 30.20 1023 10 16 N/A
12:55 am 00:55 Clear 64 18 N/A N/A N N/A 30.20 1023 10 16 N/A
1:15 am 01:15 Clear 63 17 N/A N/A N N/A 30.20 1023 7 11 N/A
1:35 am 01:35 Clear 64 18 N/A N/A N N/A 30.19 1022 10 16 N/A
1:55 am 01:55 Clear 63 17 N/A N/A N N/A 30.19 1022 10 16 N/A
2:15 am 02:15 Clear 63 17 N/A N/A N N/A 30.19 1022 10 16 N/A
2:35 am 02:35 Clear 63 17 N/A N/A N N/A 30.18 1022 10 16 N/A
2:55 am 02:55 Clear 63 17 N/A N/A N N/A 30.18 1022 10 16 N/A
3:15 am 03:15 Clear 63 17 N/A N/A N N/A 30.18 1022 10 16 N/A
3:35 am 03:35 Clear 61 16 N/A N/A N N/A 30.18 1022 10 16 N/A
3:55 am 03:55 Clear 61 16 N/A N/A N N/A 30.18 1022 10 16 N/A
4:15 am 04:15 Clear 61 16 N/A N/A N N/A 30.19 1022 10 16 N/A
4:35 am 04:35 Clear 61 16 N/A N/A N N/A 30.19 1022 10 16 N/A
4:55 am 04:55 Clear 61 16 N/A N/A N N/A 30.19 1022 10 16 N/A
5:15 am 05:15 Clear 61 16 N/A N/A N N/A 30.18 1022 10 16 N/A
5:35 am 05:35 Clear 59 15 N/A N/A N N/A 30.20 1023 10 16 N/A
5:55 am 05:55 Clear 59 15 N/A N/A N N/A 30.20 1023 10 16 N/A
6:15 am 06:15 Clear 59 15 N/A N/A N 3 6 30.20 1023 10 16 N/A
6:35 am 06:35 Sunny 59 15 N/A N/A N N/A 30.21 1023 7 11 N/A
6:55 am 06:55 Sunny 59 15 N/A N/A N 3 6 30.22 1023 10 16 N/A
7:15 am 07:15 Sunny 61 16 N/A N/A N 3 6 30.21 1023 10 16 N/A
7:35 am 07:35 Sunny 63 17 N/A N/A N N/A 30.21 1023 10 16 N/A
7:55 am 07:55 Sunny 63 17 N/A N/A N N/A 30.21 1023 10 16 N/A
8:15 am 08:15 Sunny 64 18 64 18 100 100 N N/A 30.21 1023 10 16 N/A
8:35 am 08:35 Sunny 66 19.1 66 19 99 99 N N/A 30.21 1023 10 16 N/A
8:55 am 08:55 Sunny 69 20.3 65 18.6 90 90 N N/A 30.20 1023 10 16 N/A
9:15 am 09:15 Sunny 70 21.3 65 18.3 83 83 N N/A 30.20 1023 10 16 N/A
9:35 am 09:35 Sunny 72 22.4 65 18.1 77 77 N N/A 30.20 1023 10 16 N/A
9:55 am 09:55 Sunny 73 23 65 18.2 74 74 N N/A 30.21 1023 10 16 N/A
10:15 am 10:15 Sunny 74 23.5 62 16.4 65 65 N N/A 30.21 1023 10 16 N/A
10:35 am 10:35 Sunny 75 23.9 62 16.5 63 63 N N/A 30.21 1023 10 16 N/A
10:55 am 10:55 Sunny 77 24.9 62 16.7 60 60 W 3 6 30.19 1022 10 16 N/A
11:15 am 11:15 Sunny 77 25.1 61 16.2 58 58 SW 5 7 30.19 1022 10 16 N/A
11:35 am 11:35 Sunny 78 25.6 62 16.7 58 58 WSW 5 7 30.19 1022 10 16 N/A
11:55 am 11:55 Sunny 79 26.3 63 17.1 57 57 W 5 7 30.20 1023 10 16 N/A
12:15 pm 12:15 Sunny 78 25.8 62 16.8 58 58 NNE 3 6 30.19 1022 10 16 N/A
12:35 pm 12:35 Sunny 79 26.1 62 16.9 57 57 W 3 6 30.18 1022 10 16 N/A
12:55 pm 12:55 Sunny 79 26.2 64 17.5 59 59 N N/A 30.18 1022 10 16 N/A
1:15 pm 13:15 Sunny 80 26.4 64 17.8 59 59 N N/A 30.17 1022 10 16 N/A
1:35 pm 13:35 Sunny 80 26.9 64 17.8 58 58 NNW 5 7 30.17 1022 10 16 N/A
1:55 pm 13:55 Sunny 80 26.7 64 17.6 57 57 N 5 7 30.17 1022 10 16 N/A
2:15 pm 14:15 Sunny 81 27.3 64 18 57 57 NNE 5 7 30.16 1021 10 16 N/A
2:35 pm 14:35 Sunny 82 27.5 64 17.7 55 55 NNE 6 9 30.16 1021 10 16 N/A
2:55 pm 14:55 Sunny 82 27.9 64 18 55 55 ENE 6 9 30.15 1021 10 16 N/A
3:15 pm 15:15 Sunny 82 28 65 18.1 55 55 ESE 6 9 30.14 1021 10 16 N/A
3:35 pm 15:35 Sunny 83 28.4 65 18.4 55 55 E 6 9 30.14 1020 10 16 N/A
3:55 pm 15:55 Hazy 83 28.5 65 18.4 54 54 SSE 6 9 30.13 1020 5 8 N/A
4:15 pm 16:15 Sunny 83 28.5 66 18.7 55 55 E 6 9 30.12 1020 10 16 N/A
4:35 pm 16:35 Sunny 83 28.3 65 18.2 54 54 SE 3 6 30.12 1020 10 16 N/A
4:55 pm 16:55 Sunny 83 28.5 65 18.5 55 55 SSE 6 9 30.11 1019 10 16 N/A
5:15 pm 17:15 Sunny 84 28.7 67 19.5 58 58 SSE 5 7 30.09 1019 7 11 N/A
5:35 pm 17:35 Sunny 83 28.6 66 18.8 55 55 SSW 3 6 30.09 1019 10 16 N/A
5:55 pm 17:55 Sunny 83 28.4 64 18 53 53 SSW 5 7 30.10 1019 10 16 N/A
6:15 pm 18:15 Sunny 84 28.8 65 18.3 53 53 WNW 5 7 30.09 1019 10 16 N/A
6:35 pm 18:35 Sunny 83 28.4 65 18.2 54 54 WSW 3 6 30.09 1019 10 16 N/A
6:55 pm 18:55 Sunny 83 28.4 65 18.5 55 55 NNE 5 7 30.08 1018 10 16 N/A
7:15 pm 19:15 Sunny 83 28.1 65 18.3 55 55 N N/A 30.08 1018 10 16 N/A
7:35 pm 19:35 Sunny 82 27.5 66 19 60 60 SSE 5 7 30.08 1019 10 16 N/A
7:55 pm 19:55 Sunny 81 27 65 18.6 60 60 SSE 6 9 30.08 1019 10 16 N/A
8:15 pm 20:15 Sunny 80 26.6 64 17.9 59 59 SSE 6 9 30.08 1019 10 16 N/A
8:35 pm 20:35 Sunny 79 26 64 17.8 61 61 SE 7 11 30.07 1018 10 16 N/A
8:55 pm 20:55 Sunny 78 25.6 64 17.9 63 63 SE 6 9 30.07 1018 10 16 N/A
9:15 pm 21:15 Clear 78 25.4 64 17.6 62 62 SE 6 9 30.07 1018 10 16 N/A
9:35 pm 21:35 Clear 72 22 69 20.3 90 90 N N/A 30.08 1019 10 16 N/A
9:55 pm 21:55 Clear 71 21.4 69 20.4 94 94 NNE 3 6 30.08 1019 10 16 N/A
10:15 pm 22:15 Clear 69 20.7 68 20 96 96 N N/A 30.10 1019 10 16 N/A
10:35 pm 22:35 Clear 69 20.6 68 20.1 97 97 N N/A 30.10 1019 10 16 N/A
10:55 pm 22:55 Clear 68 20 67 19.7 98 98 N N/A 30.10 1019 10 16 N/A
11:15 pm 23:15 Clear 68 20.1 68 20 99 99 NW 3 6 30.10 1019 10 16 N/A
11:35 pm 23:35 Clear 68 20 68 20 100 100 N N/A 30.11 1020 10 16 N/A
11:55 pm 23:55 Clear 68 20 N/A N/A N N/A 30.11 1020 10 16 N/A

Powered by AerisWeather